Overview Statistics Trail Chart Weather Telemetry Raw packets
 

This is the latest recevied weather packets stored in our database for station/object KA1JKB. If no packets are shown the sender has not sent any weather packets the latest 10 day(s).

<< 11 12 13 14 15 16 17 >>
Time Temp. Humidity Pressure Rain* Wind** Luminosity Snow
1788373026 32.78° C 71% 1012.7 hPa 0 mm - 629 W/m² -
1788372726 32.22° C 70% 1012.8 hPa 0 mm - 527 W/m² -
1788372442 32.22° C 69% 1012.6 hPa 0 mm - 467 W/m² -
1788372121 32.22° C 68% 1012.9 hPa 0 mm - 472 W/m² -
1788371821 32.22° C 69% 1012.9 hPa 0 mm - 508 W/m² -
1788371517 32.78° C 69% 1012.7 hPa 0 mm - 706 W/m² -
1788371213 32.78° C 68% 1013 hPa 0 mm - 649 W/m² -
1788370909 32.78° C 69% 1013.1 hPa 0 mm - 705 W/m² -
1788370604 32.22° C 70% 1012.9 hPa 0 mm - 683 W/m² -
1788370299 32.22° C 71% 1013.1 hPa 0 mm - 698 W/m² -
1788369999 32.78° C 71% 1013.1 hPa 0 mm - 616 W/m² -
1788369698 32.78° C 69% 1013.1 hPa 0 mm - 692 W/m² -
1788369393 32.78° C 69% 1013.1 hPa 0 mm - 710 W/m² -
1788369089 32.78° C 73% 1013.4 hPa 0 mm - 660 W/m² -
1788368785 32.78° C 70% 1013.2 hPa 0 mm - 667 W/m² -
1788368481 32.22° C 71% 1013.2 hPa 0 mm - 655 W/m² -
1788368181 31.67° C 73% 1013.3 hPa 0 mm - 645 W/m² -
1788367880 31.67° C 73% 1013.2 hPa 0 mm - 695 W/m² -
1788367576 31.11° C 73% 1013.3 hPa 0 mm - 670 W/m² -
1788367275 31.11° C 74% 1013.6 hPa 0 mm - 346 W/m² -
1788366970 31.67° C 72% 1013.6 hPa 0 mm - 266 W/m² -
1788366668 32.78° C 70% 1013.5 hPa 0 mm - 668 W/m² -
1788366368 32.78° C 73% 1013.4 hPa 0 mm - 794 W/m² -
1788366080 31.67° C 74% 1013.3 hPa 0 mm - 712 W/m² -
1788365758 31.67° C 72% 1013.3 hPa 0 mm - 720 W/m² -

* Rain latest hour (hover to see other rain measurements)
** Current wind speed in m/s (hover to see current wind gust speed)